Meteo pe oră la Bolshie Yaki

Astăzi, 8 Mai, Sâmbătă

Timp Temperatura Precipitaţii Vânt Presiune Umiditate
00:00 +9°C° 0.3 mm 3 m/s 752 mmHg 92%
01:00 +9°C° 0.7 mm 2 m/s 753 mmHg 92%
02:00 +8°C° 0.7 mm 2 m/s 753 mmHg 92%
03:00 +8°C° 0.7 mm 2 m/s 753 mmHg 92%
04:00 +8°C° 0.1 mm 2 m/s 753 mmHg 91%
05:00 +8°C° 0.1 mm 2 m/s 754 mmHg 91%
06:00 +8°C° 0.1 mm 2 m/s 754 mmHg 90%
07:00 +8°C° 0.1 mm 2 m/s 754 mmHg 88%
08:00 +9°C° 0.1 mm 3 m/s 754 mmHg 87%
09:00 +9°C° 0.1 mm 3 m/s 754 mmHg 85%
10:00 +9°C° 0 mm 3 m/s 754 mmHg 85%
11:00 +9°C° 0 mm 2 m/s 754 mmHg 85%
12:00 +10°C° 0 mm 2 m/s 754 mmHg 85%
13:00 +12°C° 0 mm 2 m/s 753 mmHg 82%
14:00 +13°C° 0 mm 2 m/s 753 mmHg 78%
15:00 +14°C° 0 mm 2 m/s 753 mmHg 75%
16:00 +14°C° 0 mm 2 m/s 752 mmHg 75%
17:00 +15°C° 0 mm 2 m/s 752 mmHg 75%
18:00 +15°C° 0 mm 1 m/s 751 mmHg 75%
19:00 +14°C° 0 mm 2 m/s 751 mmHg 79%
20:00 +13°C° 0 mm 2 m/s 751 mmHg 83%
21:00 +10°C° 0 mm 3 m/s 751 mmHg 87%
22:00 +10°C° 0 mm 3 m/s 750 mmHg 85%
23:00 +10°C° 0 mm 4 m/s 750 mmHg 83%

Mâine, 9 Mai, Duminică

Timp Temperatura Precipitaţii Vânt Presiune Umiditate
00:00 +10°C° 0 mm 4 m/s 750 mmHg 81%
01:00 +10°C° 0 mm 4 m/s 750 mmHg 82%
02:00 +10°C° 0 mm 4 m/s 750 mmHg 82%
03:00 +10°C° 0 mm 3 m/s 750 mmHg 82%
04:00 +10°C° 0 mm 4 m/s 750 mmHg 81%
05:00 +11°C° 0 mm 4 m/s 750 mmHg 80%
06:00 +11°C° 0 mm 4 m/s 750 mmHg 79%
07:00 +13°C° 0 mm 4 m/s 750 mmHg 74%
08:00 +14°C° 0 mm 4 m/s 750 mmHg 68%
09:00 +16°C° 0 mm 5 m/s 750 mmHg 63%
10:00 +17°C° 0 mm 5 m/s 750 mmHg 60%
11:00 +17°C° 0 mm 5 m/s 750 mmHg 56%
12:00 +19°C° 0 mm 6 m/s 750 mmHg 53%
13:00 +20°C° 0 mm 5 m/s 750 mmHg 53%
14:00 +20°C° 0 mm 5 m/s 750 mmHg 52%
15:00 +21°C° 0 mm 5 m/s 750 mmHg 52%
16:00 +20°C° 0 mm 4 m/s 750 mmHg 56%
17:00 +19°C° 0 mm 4 m/s 750 mmHg 60%
18:00 +18°C° 0 mm 3 m/s 750 mmHg 64%
19:00 +17°C° 0.3 mm 3 m/s 750 mmHg 73%
20:00 +16°C° 0.3 mm 3 m/s 751 mmHg 82%
21:00 +13°C° 0.3 mm 3 m/s 751 mmHg 91%
22:00 +12°C° 0.7 mm 3 m/s 752 mmHg 92%
23:00 +12°C° 0.7 mm 2 m/s 752 mmHg 94%

Poimâine, 10 Mai, Luni

Timp Temperatura Precipitaţii Vânt Presiune Umiditate
00:00 +10°C° 0.7 mm 2 m/s 752 mmHg 95%
01:00 +10°C° 0 mm 2 m/s 753 mmHg 95%
02:00 +9°C° 0 mm 3 m/s 754 mmHg 94%
03:00 +9°C° 0 mm 3 m/s 754 mmHg 93%
04:00 +8°C° 0 mm 3 m/s 755 mmHg 92%
05:00 +8°C° 0 mm 3 m/s 755 mmHg 90%
06:00 +6°C° 0 mm 4 m/s 756 mmHg 89%
07:00 +6°C° 0.1 mm 4 m/s 756 mmHg 89%
08:00 +6°C° 0.1 mm 4 m/s 757 mmHg 89%
09:00 +6°C° 0.1 mm 4 m/s 758 mmHg 89%
10:00 +7°C° 0.1 mm 4 m/s 758 mmHg 88%
11:00 +7°C° 0.1 mm 4 m/s 758 mmHg 86%
12:00 +9°C° 0.1 mm 3 m/s 759 mmHg 85%
13:00 +8°C° 0.1 mm 4 m/s 759 mmHg 84%
14:00 +8°C° 0.1 mm 4 m/s 760 mmHg 83%
15:00 +10°C° 0.1 mm 4 m/s 760 mmHg 83%
16:00 +10°C° 0 mm 4 m/s 760 mmHg 81%
17:00 +9°C° 0 mm 5 m/s 761 mmHg 79%
18:00 +9°C° 0 mm 5 m/s 761 mmHg 77%
19:00 +8°C° 0 mm 4 m/s 761 mmHg 80%
20:00 +8°C° 0 mm 3 m/s 761 mmHg 83%
21:00 +7°C° 0 mm 3 m/s 762 mmHg 85%
22:00 +6°C° 0 mm 2 m/s 762 mmHg 87%
23:00 +6°C° 0 mm 2 m/s 762 mmHg 89%

11 Mai, Marţi

Timp Temperatura Precipitaţii Vânt Presiune Umiditate
00:00 +5°C° 0 mm 2 m/s 762 mmHg 90%
01:00 +5°C° 0 mm 2 m/s 763 mmHg 91%
02:00 +5°C° 0 mm 2 m/s 763 mmHg 92%
03:00 +3°C° 0 mm 3 m/s 763 mmHg 92%
04:00 +4°C° 0 mm 3 m/s 763 mmHg 88%
05:00 +5°C° 0 mm 3 m/s 763 mmHg 83%
06:00 +6°C° 0 mm 4 m/s 764 mmHg 79%
07:00 +8°C° 0 mm 4 m/s 764 mmHg 70%
08:00 +10°C° 0 mm 5 m/s 764 mmHg 61%
09:00 +12°C° 0 mm 5 m/s 764 mmHg 52%
10:00 +14°C° 0 mm 5 m/s 764 mmHg 48%
11:00 +15°C° 0 mm 4 m/s 764 mmHg 44%
12:00 +17°C° 0 mm 4 m/s 764 mmHg 41%
13:00 +17°C° 0 mm 4 m/s 764 mmHg 40%
14:00 +18°C° 0 mm 4 m/s 763 mmHg 39%
15:00 +18°C° 0 mm 4 m/s 763 mmHg 38%
16:00 +17°C° 0 mm 4 m/s 763 mmHg 44%
17:00 +17°C° 0 mm 3 m/s 763 mmHg 49%
18:00 +16°C° 0 mm 2 m/s 763 mmHg 55%
19:00 +14°C° 0 mm 2 m/s 763 mmHg 58%
20:00 +13°C° 0 mm 2 m/s 764 mmHg 62%
21:00 +10°C° 0 mm 2 m/s 764 mmHg 65%
22:00 +10°C° 0 mm 2 m/s 764 mmHg 67%
23:00 +9°C° 0 mm 2 m/s 764 mmHg 68%

12 Mai, Miercuri

Timp Temperatura Precipitaţii Vânt Presiune Umiditate
00:00 +9°C° 0 mm 3 m/s 764 mmHg 70%
01:00 +8°C° 0 mm 2 m/s 764 mmHg 70%
02:00 +8°C° 0 mm 2 m/s 764 mmHg 71%
03:00 +7°C° 0 mm 2 m/s 764 mmHg 71%
04:00 +8°C° 0 mm 2 m/s 764 mmHg 70%
05:00 +9°C° 0 mm 2 m/s 764 mmHg 68%
06:00 +10°C° 0 mm 2 m/s 765 mmHg 66%
07:00 +13°C° 0 mm 2 m/s 764 mmHg 59%
08:00 +14°C° 0 mm 3 m/s 764 mmHg 52%
09:00 +17°C° 0 mm 3 m/s 764 mmHg 45%
10:00 +18°C° 0 mm 3 m/s 764 mmHg 43%
11:00 +19°C° 0 mm 3 m/s 764 mmHg 41%
12:00 +20°C° 0 mm 3 m/s 764 mmHg 40%
13:00 +21°C° 0 mm 3 m/s 764 mmHg 40%
14:00 +21°C° 0 mm 3 m/s 763 mmHg 41%
15:00 +21°C° 0 mm 3 m/s 763 mmHg 42%
16:00 +21°C° 0 mm 3 m/s 763 mmHg 48%
17:00 +20°C° 0 mm 2 m/s 763 mmHg 54%
18:00 +19°C° 0 mm 2 m/s 763 mmHg 60%
19:00 +18°C° 0 mm 2 m/s 763 mmHg 63%
20:00 +16°C° 0 mm 1 m/s 763 mmHg 66%
21:00 +15°C° 0 mm 1 m/s 763 mmHg 69%
22:00 +14°C° 0 mm 1 m/s 763 mmHg 70%
23:00 +14°C° 0 mm 1 m/s 763 mmHg 72%

13 Mai, Joi

Timp Temperatura Precipitaţii Vânt Presiune Umiditate
00:00 +13°C° 0 mm 1 m/s 763 mmHg 73%
01:00 +13°C° 0 mm 1 m/s 763 mmHg 75%
02:00 +13°C° 0 mm 1 m/s 763 mmHg 76%
03:00 +12°C° 0 mm 1 m/s 763 mmHg 78%
04:00 +13°C° 0 mm 1 m/s 763 mmHg 76%
05:00 +14°C° 0 mm 1 m/s 763 mmHg 74%
06:00 +15°C° 0 mm 2 m/s 763 mmHg 72%
07:00 +17°C° 0 mm 2 m/s 763 mmHg 67%
08:00 +19°C° 0 mm 2 m/s 762 mmHg 62%
09:00 +21°C° 0 mm 3 m/s 762 mmHg 56%
10:00 +22°C° 0 mm 3 m/s 762 mmHg 53%
11:00 +24°C° 0 mm 3 m/s 762 mmHg 50%
12:00 +25°C° 0 mm 3 m/s 762 mmHg 47%
13:00 +25°C° 0 mm 3 m/s 761 mmHg 46%
14:00 +26°C° 0 mm 3 m/s 761 mmHg 45%
15:00 +26°C° 0 mm 3 m/s 761 mmHg 43%
16:00 +25°C° 0 mm 2 m/s 761 mmHg 49%
17:00 +24°C° 0 mm 2 m/s 761 mmHg 54%
18:00 +23°C° 0 mm 2 m/s 761 mmHg 59%
19:00 +22°C° 0 mm 1 m/s 761 mmHg 61%
20:00 +20°C° 0 mm 1 m/s 761 mmHg 64%
21:00 +19°C° 0 mm 1 m/s 761 mmHg 67%
22:00 +18°C° 0 mm 1 m/s 761 mmHg 68%
23:00 +18°C° 0 mm 1 m/s 761 mmHg 69%
Arată mai mult

Formular de consimțământ

Meteoprog și furnizorii noștri de servicii pot stoca și accesa date personale, precum cookies, identificatori de dispozitiv sau alte tehnologii similare pe dispozitivul dumneavoastră și procesa astfel de date pentru a personaliza conținutul și reclamele, dar și pentru a oferi caracteristici de social media și pentru a analiza traficul.

  • Stocarea și/sau accesarea informațiilor pe dispozitivul dumneavoastră

    Cookies, identificatori de dispozitiv sau alte informații pot fi stocate sau accesate pe dispozitiv în scopurile indicate mai sus.

  • Reclame și conținut personalizat, evaluarea reclamelor și a conținutului, informații despre audiențe și dezvoltarea produselor

    Reclamele și conținutul pot fi personalizate pe baza unui profil. Pot fi adăugate date suplimentare pentru a personaliza mai bine reclamele și conținutul. Performanța reclamelor și conținutului poate fi măsurată. Pot fi obținute informații despre utilizatorii care au văzut reclamele și conținutul. Aceste date pot fi utilizate pentru a dezvolta sau îmbunătăți experiența utilizatorilor, sistemele și software-ul.

Dând clic pe ‘Sunt de acord’, permiteți utilizarea cookie-urilor menționate, a identificatorilor de dispozitiv, balizelor web sau altor tehnologii similare. Setările pot fi modificate din browser-ul dispozitivului dumneavoastră.

În anumite scopuri, interesele legitime pot prima asupra consimțământului. Puteți citi mai multe informații în acest sens în Politica privind Confidențialitatea Datelor și Cookie.